Race Results for
2013 Sea Otter Classic- MOUNTAIN BIKE
Monterey, CA
(Event Information)
Downhill on 04/20/2013

Note: Ranking points are NOT upgrade points. An explanation of ranking points can be found here.


Men - OPEN - SENIOR - 19-29

 Place Points NameCity, StateTime USAC #BibTeam
1Samuel Markling   02:30.7  880 
2Kevin Carroll   02:45.0  996 
3Jacob Sailor   02:46.2  981 
4Chris Snyder   02:47.5  881 
5Gavin Kirby   02:49.0  1030 
6581.65Josh Eisen   Monterey, CA03:02.8 223708  879 
7Nathan Cohen   03:16.2  878 

Men - OPEN - MASTER - 40+

 Place Points NameCity, StateTime USAC #BibTeam
1540.00Vann Johnson   La Mesa, CA02:50.7 158993  882 
2556.67Jack Kincaid   Spring Valley, CA02:52.2 133470  884 
3573.34Lars Thomsen   San Jose, CADNF 83197  885 
3573.34Craig Hart   Santa Cruz03:22.5 15270  883 Ride 2 Recovery

Men - CAT 3 - JUNIOR - 15

 Place Points NameCity, StateTime USAC #BibTeam
1Matthew Gaucher   02:34.9  575 
2Justin Zumwalt   02:36.0  1097 
3Kane Miller   02:38.8  569 
4545.01Matthew Koen   Belvedere Tiburon, CA02:40.1 379171  566 
5Teddy Hayden   02:41.6  584 
6548.35Austin Fotinos   Half Moon Bay, CA02:42.2 399685  1021 
7Nathan Clark   02:42.7  583 
8Casey Cunningham   02:44.9  570 
9553.36Campbell Nolan   Belvedere Tiburont, CA02:45.7 405317  573 
10Connor Armstrong   02:46.2  585 
11DEREK MCCUISTON   02:46.9  568 
12558.37Brandyn Harris   Sparks Nevada02:47.7 394577  571 
13560.04Nathan Kohl   Cameron Park, CA02:48.6 357271  578 Kinetic Cycles
14Josh Brewer   02:48.6  563 
15Drew Loring   02:49.8  565 
16Cameron Richardson   02:53.5  588 
17Carter Pope   02:54.7  579 
18Branson Morain   02:54.9  1166 
19NICHOLAS WEMYSS   02:57.1  1124 
20Tanner Simonovich   02:58.1  576 
21573.40Jameson Radu   Tiburon02:58.1 362390  580 
22Daniel Long   02:59.2  582 
23Sam Baum   02:59.7  1101 
24Mason Morgan   03:02.4  574 
25Blair Whitted   03:04.6  577 
26Donovan Francis   03:05.3  567 
27Austen Allen   03:06.4  589 
28Nick White   03:07.6  372 
29586.76Ben Hafer   Atascadero03:16.8 403286  581 
30588.43Max Bauerle   Ben Lomond03:24.5 400918  586 
31Aaron Campello   03:42.8  587 
DNFIsaac Farrell   DNF  572 
DNFDavid Peterson   DNF  564 

Men - CAT 3 - JUNIOR - 16

 Place Points NameCity, StateTime USAC #BibTeam
1Drew Rausch   02:32.7  602 
2541.61Russ Taylor   Salem, OR02:34.8 35126  613 
3543.22Gus Phelan   San Luis Obispo, CA02:38.0 366048  610 
4544.83Travis Carr   Felton, CA02:38.7 384571  1088 
5Kyle Ashcraft   02:40.3  594 
6Ravi Patel   02:42.2  1082 
7Harry Head   02:43.0  592 
8Steven McCloskey   02:44.2  1086 
9Jeremy Donk   02:49.0  620 
10Dillon Gooder   02:49.5  619 
11Nicholas Karnes   02:50.6  593 
12Andrew Schreck   02:50.6  614 
13Colton Muelrath   02:50.8  600 
14Beck Farrell   02:50.9  611 
15Jakob Chenoweth   02:52.0  1146 
16Henry Baron   02:54.3  1083 
17Joe Lancaster   02:56.1  598 
18567.37Chad Kanner   Laguna Beach02:57.1 403239  606 
19Joshua Brady   02:58.9  597 
20Tommy Tognoli   02:59.7  591 
21572.20Jordan Moore   Quincy, MA03:01.1 114792  608 Onion River Sports
22Clay Wilson   03:01.8  601 
23Jenner Poulsen   03:02.1  603 
24John Feeney   03:04.5  596 
25Adrian Gumba   03:04.8  599 
26NATHAN MUCCIA   03:06.3  616 
27Gavin Shafer   03:06.4  
28Luke Hildebrand   03:11.0  612 
29Max Reck   03:15.7  1042 
30Max Schrock   03:17.3  615 
31JOHN DUNBAR   03:21.3  609 
32Jesse Paris   03:49.9  621 
DNFJoel Clark   Richmond, VADNF 7024  699 
DNFKavi Rengel   DNF  595 
DNFSam Fletcher   DNF  617 
DNFChristopher Baringer   DNF  605 

Men - CAT 3 - JUNIOR - 17

 Place Points NameCity, StateTime USAC #BibTeam
1Dillon Santos   02:30.1  636 
2Dylan O'Connor   02:31.0  627 
3JP Purdom   02:33.5  623 
4546.24Matthew Brady   Lawrenceville, GA02:33.6 237490  635 
5Erik Thorson   02:38.7  642 
6Mitchell Pisciotta   02:39.3  629 
7John Curtis   02:39.5  632 
8Gabe Friedman   02:39.6  638 
9Sean McGuinness   02:41.3  641 
10EC Halicki   02:41.9  1102 
11Brian Cahal   02:42.1  633 
12Stuart Hanna   02:42.3  625 
13Sean Campbell   02:42.6  646 
14567.04Spencer Kibbe   San Luis Obispo, CA02:47.3 360740  640 
15Sean Haran   02:47.6  622 
16Kai Bannister   02:49.1  643 
17Ben Alden   02:49.3  631 
18Liam Todd   02:49.7  639 
19577.44Gabe McDonald   Grass Valley, CA02:51.0 337868  706 Placer Foothill Mountain Bike Club
20Joshua Freedman   02:52.5  634 
21Peter Karren   02:57.4  644 
22583.68Chris Clifford   Greenbrae, CA03:03.9 375816  630 
23585.76Adam Persson   San Rafael, CA03:04.3 402636  624 
24Jordan Derecho   03:09.9  626 
25Caden Leonard   03:22.7  1090 
DNFJARED BONDS   DNF  628 
DNFJackson Houdek   DNF  637 

Men - CAT 3 - JUNIOR - 18

 Place Points NameCity, StateTime USAC #BibTeam
1Will Harper   02:38.4  650 
2Ross Harrington   02:39.0  652 
3546.66Alec Stambersky   Murrietaurrieta, CA02:39.9 391478  1062 
4549.99Sean Ungvarsky   Phoenix, AZ02:40.1 405064  661 
5553.32Zach Hutelin   Ft. Lauderdale Fl02:42.4 374662  645 
6James Dondono   02:42.5  655 
7Kyle Crawford   02:42.7  653 
8Connor Rickey   02:43.6  659 
9Eric Ringsrud   02:44.2  656 
10Chris Heyman   02:48.5  647 
11Chayney Perez   02:51.3  658 
12Lucas Chambliss   02:53.0  651 
13Justin Honeyman   02:56.1  648 
14KYLER MASON   03:08.9  1163 
15Dan Folwarkow   03:09.7  649 
16Marc Maza   03:11.9  660 
DNFCharlie Chenoweth   DNF  1147 
DNFLogan Weber   DNF  688 
DNFKip Ringsrud   DNF  657 
DNFEvan Goldsmith   DNF  654 

Men - CAT 3 - SENIOR - 19-24

 Place Points NameCity, StateTime USAC #BibTeam
1Dalton Bush   02:28.6  686 
2Matt Winslow   02:30.6  984 
3542.78Austin Rauh   Reno02:31.9 274232  685 Reno Wheelmen
4544.17Seth Anderson   Westphalia, MI02:33.1 398589  672 
5545.56BRENDON ROACH   Capistrano Beach, CA02:33.3 399671  1160 
6546.95Ben Turner   Surprise, AZ02:36.4 374904  694 
7Larry Hagen   02:38.1  680 
8Bryce Butzine   02:38.5  985 
9Nicholas Gasparich   02:39.2  692 
10Kirk Kaubish   02:39.7  673 
11Eugene Holland   02:39.9  1049 
12Gage Straube   02:40.2  1070 
13Omid Ghassemi   02:41.1  684 
14558.07John Mullane   Watsonville, CA02:41.4 250580  701 
15559.46Phil Tercero   Morgan Hill Ca02:43.3 396818  669 
16Reuben Demirdjian   02:43.5  698 
17Billy Arsenault   02:43.8  682 
18Satchel Cronk   02:44.2  675 
19Luke Beattie   02:44.2  681 
20Ryan Gumm   02:45.3  703 
21Dean Talley   02:46.3  1051 
22Jonathan Nissing   02:47.9  1052 
23570.58TRAVIS WELLS   Groveland , CA02:49.3 365012  687 
24Jack Heeber   02:50.3  693 
25573.36Spencer Lehn   Roseville, CA02:50.9 335384  691 
26Jeff Norton   02:55.1  689 
27576.14Kevin Shane   Lone Tree, CO02:56.2 263257  670 
28577.53Kyle Josephson   Aptos, CA02:58.4 403711  662 
29Bryan Doney   02:58.7  707 
30580.31Salvador Patino   Albany, CA03:07.3 365013  678 
31581.70Jacob Abruzzini   Gilroy, CA03:14.8 361418  700 
32Bryce Jensen   03:15.5  666 
33Travis Ashbrook   03:17.1  674 
34585.87Karoly Gyetvai   San Jose, CA03:19.9 400920  667 
35Jacob Andrews   03:22.0  695 
36John Reyes   03:35.7  697 
37Daniel Silva   03:42.0  704 
DNFJoseph Engelman   DNF  679 
DNFLiam Gleason   Santa Clara, CADNF 292521  1054 
DNFMatthew Akin   DNF  1043 
DNFNick Velichko   DNF  690 
DNFElijah Gacad   DNF  702 
DNFben unruh   DNF  683 
DNFBrandon Lincoln   DNF  284 
DNFKevin Hom   DNF  676 
DNFSean Scheufler   DNF  671 
DNFJustin Enos   DNF  705 
DNFSteve Jenness   DNF  668 
DNFEvan Harris   SparksDNF 393893  665 
DNFNick Kutateli   DNF  663 
DNFCameron Hensley   DNF  677 

Men - CAT 3 - SENIOR - 25-29

 Place Points NameCity, StateTime USAC #BibTeam
1Eddie Sequinot   02:32.4  943 
2542.50Chris Sparks   Redlands, CA02:34.2 59934  725 
3Nick Ericksen   02:38.9  718 
4John Leuty   02:40.5  956 
5Trevor VanPatten   02:42.3  993 
6552.50Ian Marshall   Portland, OR02:44.2 73191  1103 
7Tony Trahan   02:44.4  727 
8Eli Wolverton   02:45.3  717 
9Danny Mendoza   02:46.9  724 
10562.50Sam Rodriguez   Santa Margarita02:49.7 292435  722 
11565.00Andrew Eskildsen   Pleasanthill, CA02:50.2 285296  708 
12567.50Roberto Roque   Lafayette, CA02:51.0 326088  710 
13ADAM HAMMERMAN   02:55.5  1155 
14Arthur Lau   02:57.5  719 
15Andrew Marshall   02:58.8  714 
16Bryan Milazzo   03:03.9  712 
17Steven Linderman   03:04.5  1171 
18Matt Harken   03:09.6  1022 
19Dan Pasion   03:12.2  716 
20ROBERTO SANCHEZ   03:14.5  713 
21Carlo Montelillo   03:17.9  1110 
DNFJames Gorrell   Carmichael, CADNF 270927  709 
DNFTrevor Vanpattan   DNF  726 
DNFBrian Keene   DNF  721 
DNFMaxwell Sobel   DNF  711 
DNFAdam Kaeding   DNF  715 
DNFMatt Merchant   DNF  720 

Men - CAT 3 - SENIOR - 30-34

 Place Points NameCity, StateTime USAC #BibTeam
1Steven Lewis   02:36.4  735 
2Jon Pack   02:37.1  743 
3545.56David Fouche   Lexington, MA02:42.7 138665  740 
4Nicholas Bresette   02:45.7  737 
5Alex Bustamente   02:46.1  739 
6553.90Christopher Ritchey   Mountain Ctr, CA02:51.2 40376  734 
7556.68Carlos Espinoza   Annandale, VA02:51.6 286229  731 
8Seth Bennett   02:53.7  733 
9562.24Scott Wenberg   La Mirada02:54.3 403402  749 
10Zaldy rey Albelda   02:57.0  742 
11Richard Balagasay   03:01.2  745 
12David Jacoby   03:03.4  1137 
13Hien Lam   03:03.8  746 
14Brandon Siegers   03:04.1  1104 
15RONNIE CATABAY   03:05.0  730 
16Kris Chamberlin   03:09.1  741 
17Pete Biggam   03:09.5  732 
18David Ryan Salomon   03:40.5  744 
19590.04Richard Lawrence   Mission Viejo, CA03:52.7 86828  728 
DNFGant Van der Boom   DNF  747 
DNFMichael Napier   Fresno, CADNF 392266  748 
DNFCort Mao   DNF  736 
DNFDavid Roudpeyma   DNF  729 
DNFEvan Currid   DNF  738 

Men - CAT 3 - SENIOR - 35-39

 Place Points NameCity, StateTime USAC #BibTeam
1James Bender   02:39.2  768 
2DANIEL FOSTER   02:43.5  753 
3547.70Sven Raz   Pacifica, CA02:44.3 127714  754 
4551.55Andy Jones   Springfield, OR02:47.1 136700  953 
5Joshua Bietz   02:48.9  764 
6559.25Jens Raz   Escondido, CA02:52.5 226370  765 
7Michael Benninghofen   02:57.1  766 
8566.95Stephen Dermer   Santa Cruz, CA02:57.4 356752  751 
9Kevin Antos   03:00.1  762 
10574.65Aaron Faupell   Belmont, CA03:00.6 392841  759 Quadzilla Racing
11578.50Daniel Lebson   Folsom, CA03:01.3 295237  761 
12Mark Aguila   03:03.5  982 
13Justin Russell   03:24.2  752 
14590.05Jeremy Penfold   Severence, CO04:26.9 176568  767 
DNFFRANKLIN JUANICH   DNF  750 
DNFShane Scrimager   Grass Valley, CADNF 296964  755 
DNFsteve torres   Exeter, CADNF 250515  756 
DNFPaul Boyer   DNF  757 
DNFJaime Adame   Chico, CADNF 276648  758 
DNFAndre Ramsey   DNF  760 
DNFScott Faser   Roseville, CADNF 334198  763 
DNFTroy Laffey   DNF  968 

Men - CAT 3 - MASTER - 40-49

 Place Points NameCity, StateTime USAC #BibTeam
1STEFANO NIGLIORINI   02:24.5  1153 
2541.39David Brady   Livermore, CA02:33.1 101967  793 
3542.78Steve Kjaer   Aptos, CA02:34.1 19309  788 
4Brian Larson   02:35.5  786 
5Nathan Smith   02:39.0  804 
6Eric Jackson   02:39.9  785 
7Michael Habicht   02:42.1  774 
8549.73james carey   Henderson, NV02:42.5 237556  780 
9DAVID IRWIN   02:43.9  773 
10Rogelio Flores   02:45.4  775 
11553.90Chris Johnson   Eureka, CA02:46.7 86457  1095 Adventures Edge
12Russell Lancaster   02:50.1  779 
13Gary Hofsheier   02:50.7  802 
14John Fotinos   02:51.8  1020 
15Dash Pedro   02:52.0  769 
16560.85Steve Lawrence   Salt Lake City, UT02:52.7 322076  1024 
17Marcel Ayers   02:54.7  799 
18563.63Timothy Mitchell   Sanfrancisco, CA02:55.1 282752  983 Evergreen Cycling
19Brian White   02:55.6  794 
20Mario Hoang   02:57.1  797 
21RICK CASTRO   02:58.0  801 
22Matt Donlan   02:58.6  781 
23570.58Patrick Haran   San Luis Obispo, CA03:00.8 204330  770 
24Brandon Kato   03:02.5  796 
25573.36Trent Mikami   San Jose, CA03:03.1 24303  803 
26574.75Michael Legge   Thousand Oaks, CA03:06.4 154855  795 
27576.14John Tymo   Pleasant Hill, CA03:06.6 261733  772 
28577.53Edward Sporbert   Westfiel Ma03:06.8 198456  1164 
29578.92Sean Koyano   San Jose, CA03:07.6 391236  800 
30Herbert Jingco   03:08.6  789 
31Paul Mercure   03:09.2  782 
32Richard Miralles   03:13.3  776 
33Chad Minton   03:14.6  798 
34Ronnie Usrey   03:15.0  947 
35Doug Berry   03:15.4  777 
36Paul Campbell   03:17.7  778 
37Wilfredo Escolar Jr   04:01.2  792 
DNFVincent Crivello   DNF  771 
DNFJoey Adame   DNF  784 
DNFChris Bobzien   DNF  787 
DNFDavid Irvine   DNF  790 

Men - CAT 3 - MASTER - 50+

 Place Points NameCity, StateTime USAC #BibTeam
1Jeff Franklin   03:01.9  809 
2Chris Simoneaux   03:02.1  1129 
3Charles Velez   03:02.5  806 
4556.68Andy Somerville   Newport Beach, CA03:04.8 33456  807 
5562.24Richard Hayamizu   Mountain View, CA03:07.8 211666  808 
6567.80Tibi Szilagyi   Capitola, CA03:21.7 190138  1027 
7573.36Gerardo Perez   Antioch, CA03:22.4 274713  805 
8578.92Bobby McMullen   Redding, CA03:25.4 234393  1001 
9Steven Wilson   03:37.9  1125 
10Michael Yartzoff   03:44.6  1067 

Men - CAT 2 - JUNIOR - 15-16

 Place Points NameCity, StateTime USAC #BibTeam
1Joe Van Pykeren   02:25.8  369 
2541.72Louis Mollett   Ashland, OR02:27.2 385250  970 
3John Waldron   02:28.5  202 
4545.16Lukas Katsandris   San Clemente, CA02:29.2 401118  365 
5Logan Richardson   02:29.7  604 
6ISAAC WALLEN   02:31.9  1122 
7Dylan Pesce   02:32.4  367 
8Ben BRay   02:33.5  358 
9553.76Cody Toms   San Clemente, CA02:33.8 401302  366 
10Devin Ryan   02:35.5  1161 
11557.20Christof Andersen   Capistrano Beach02:35.8 401661  375 
12Ethan Toom   02:36.3  371 
13Wyatt Cook   02:36.3  368 
14Matthew Lane   02:36.5  377 
15564.08Jayden Farley   San Clemente, CA02:37.5 403389  379 
16Ryan Fitzgerald   02:37.6  1089 
17William Castaneda   02:37.8  364 
18569.24Daniel Stair   Elgin Afb, FL02:39.6 144528  370 
19Dan Carroll   02:41.3  995 
20Austin Lancaster   02:42.1  362 
21574.40Kyle Legge   Newbury Park02:42.3 400648  373 
22576.12Shayden Housley   Murray, UT02:43.6 374992  378 
23577.84Jonathan Legge   Newbury Park02:44.0 399360  374 
24579.56Ethan Sokolowski   Atascadero Ca02:45.8 392406  214 
25581.28Tanner Sears   San Clemente, CA02:47.6 400994  607 
26Donovan Rice   02:52.7  359 
27Ian Good   02:53.3  376 
28Travis Hogue   02:59.7  217 
29Alex Kolda   02:59.9  361 
30Ethan Burns   03:01.4  979 
DNFLogan Somerville   DNF  360 
DNFKevin Gregg   Pacifica, CADNF 361275  363 

Men - CAT 2 - JUNIOR - 17-18

 Place Points NameCity, StateTime USAC #BibTeam
1540.00Sebastian Bauer   Novato, CA02:19.5 385483  388 
2Julian Tristan Divine   02:27.2  393 
3542.86Jesse Taysom   Pocatello, ID02:27.5 379617  406 
4544.29Caleb Minthorn   Sarasota, FL02:28.1 347086  392 
5Elliot Benson   02:28.6  384 
6547.15Alec Pasqualina   Alamo, CA02:29.3 380657  402 
7548.58Sebastian Andersen   Capistrano Beach, CA02:29.7 401659  409 
8JONATHAN SIMEK   02:30.9  405 
9551.44Bryce Helbling   Sandy, UT02:31.9 406096  412 
10552.87Karl Luhmann   Novato, CA02:32.3 365183  381 
11Spencer Barnes   02:32.6  411 
12555.73Winter Nason   Santa Rosa, CA02:34.6 358967  1076 
13557.16Zach Miller   Canton, GA02:34.7 375946  400 
14Kyle Bowman   02:35.2  410 
15560.02Cole West   Auburn, CA02:36.0 336076  1004 Placer Foothill Mountain Bike Club
16561.45Dorin Farley   San Clemente, CA02:36.2 401627  413 
17Zach Bodeman   02:36.3  389 
18Ryan Heeber   02:36.6  398 
19565.74Drew Soltis   Mill Valley, CA02:36.6 292269  1060 
20Jonathan Van Patten   02:36.7  397 
21568.60Wyatt Morin   Roseville, CA02:37.2 266930  390 Victory Velo Racing
22Matthew Gomez   02:39.3  396 
23Ryan Simonovich   02:39.4  383 
24Kyle Kaminski   02:39.6  401 
25Ryan Durazo   02:41.2  395 
26Austin Ables   02:41.9  404 
27Taylor DeMan   02:43.7  394 
28578.61Eric Goshay   Richmond Ca02:44.5 405873  391 
29Riley Gibson Graf   02:44.6  387 
30Blake Alhart   02:49.1  386 
31582.90Benjamin Brydon   San Carlos, CA02:50.2 342816  999 
32Lucas Maranon   02:53.0  403 
33Wyatt Composti   02:55.5  960 
34Nathan McWhorter   02:58.4  399 
35Adam Carp   03:07.0  407 
36Karl Schultz   03:15.1  408 
DNFTerry HAYMES   DNF  382 
DNFFrankie Etienne   DNF  385 
DNFJoey MacKillican   DNF  1006 

Men - CAT 2 - SENIOR - 19-21

 Place Points NameCity, StateTime USAC #BibTeam
1Kyle Madden   02:22.8  976 
2Rex Peel   02:24.7  419 
3542.78Tim Remick   San Diego Ca02:26.8 395068  433 
4Cody Breuninger   02:27.3  423 
5Kris Schroeder   02:28.6  946 
6Zac Myers   02:30.1  421 
7Nicky DiNapoli   02:30.3  664 
8Kevin Ball   02:30.5  986 
9Shea Weidler   02:30.8  429 
10552.51Jack Drain   Park City, UT02:30.8 405024  420 
11Garret Hammack   02:30.9  416 
12Andrew Stallings   02:31.6  1025 
13Gil Carr   02:31.6  437 
14558.07Alex Winkler   Flagstaff, AZ02:32.5 328984  428 Northern Arizona University
15Ben Stamziale   02:32.8  1117 
16Steven Schwartz   02:33.0  440 
17562.24Conor Briese   San Anselmo, CA02:33.2 321228  425 
18Jeff Leishman   02:33.9  417 
19565.02Aaron Albor   Orangevale, CA02:34.3 335944  424 
20566.41Grayson Sanchez   San Clemente, CA02:34.4 401340  1134 
21Ryan Hall   02:35.4  435 
22Luca Digby   02:35.5  431 
23Rocky Lee   02:35.8  434 
24571.97Jacob Riffel   Camarillo, CA02:37.8 383026  1093 
25Trenton Berner   02:38.5  432 
26Matt Prout   02:38.8  422 
27576.14Kellin Honodel   Sanjose, CA02:40.5 313146  987 
28Jayaram Notestine   02:41.3  1107 
29Spencer Philp   02:43.1  438 
30580.31Will Stewart   Livermore, CA02:43.2 359013  1092 
31Gordon Belyea   02:43.3  1144 
32James Johnson   02:44.2  439 
33584.48Hunter Gaither   Watsonville, CA02:45.9 260467  426 
34Bennett Kornbrath   02:47.0  418 
35Joel Hitchen   02:47.7  436 
36Bud Bolin   03:08.5  427 
37590.04Brandon Lippold   San Luis Obispo, CA03:39.2 333588  414 
DNFChris Brenchley   Saratoga, CADNF 338774  415 
DNFRyan Ellis   DNF  430 

Men - CAT 2 - SENIOR - 22-24

 Place Points NameCity, StateTime USAC #BibTeam
1Trevor Roland   02:24.1  451 
2541.67Tanner Wittman   Scottsdale, AZ02:25.6 392137  456 
3Vincen Kimber   02:27.7  972 
4545.01Thacher Greene   Angwin, CA02:28.2 368406  445 
5546.68Andrew Soto   Santa Margarita, CA02:29.8 359116  1005 
6Patrick Costa   02:31.0  1069 
7Aaron Dale   02:32.2  951 
8Schuyler Spence   02:32.3  696 
9Tom Ziegler   02:32.8  458 
10555.03Mike Yartzoff   Redlands, CA02:33.1 360906  1066 
11Nate Contente   02:33.1  461 
12558.37Ross McDonald   Los Angeles, CA02:34.9 389439  443 
13Mike Pedemonte   02:35.4  1114 
14Steve Ralston   02:35.8  455 
15563.38Andrew Kathner   San Jose, CA02:35.8 370466  1119 
16565.05Jordan Hartman   Seaside, CA02:35.9 331446  449 
17Alex Hodson   02:36.7  454 
18Jason (Jay) Trautman   02:38.3  460 
19Tyler Matejcek   02:41.8  1142 
20Keegan McAuliffe   02:42.0  448 
21Chuck Finlay   02:43.5  463 
22Trevor Torres   02:43.8  457 
23Scott Goodman   02:44.5  462 
24Anthony Orgain   02:46.4  444 
25580.08Anthony Giordani   Novato, CA02:46.7 258738  450 
26Timothy Kunakov   02:48.6  453 
27Erik Mackenstadt   02:49.3  1145 
28Scott Gregory   02:51.7  1121 
29Jesse Copley   02:57.2  952 
30Raphael Sonstein   05:00.1  1108 
31590.10Casey Watson   San Rafael, CA09:33.9 233091  452 
DNFSalar Salehi   DNF  459 
DNFEvan Peterson   Mason City, IADNF 259918  446 
DNFCJ Trexler   DNF  441 
DNFRyan Duarte   Grass Valley, CADNF 221526  279 Bicycle Emporium
DNFDarren Looney   BisbeeDNF 368058  442 

Men - CAT 2 - SENIOR - 25-29

 Place Points NameCity, StateTime USAC #BibTeam
1Robert Boger   02:21.3  493 
2Ryan Johnson   02:21.8  1068 
3Anthony Locke   02:25.2  489 
4Johnny Brooks   02:25.5  467 
5TYLER AUSMUS   02:27.2  1120 
6James Fuller   02:27.4  1077 
7Michael Hoover   02:28.0  480 
8546.37Mack Crouch   Carmel, CA02:29.1 198495  1034 
9Jeff Silliman   02:29.7  465 
10548.19Trevor Gay   Dayton02:29.9 210261  490 
11549.10Dustin Yue   Auburn, CA02:31.6 261345  468 NRL Racing Development Team
12Braedon Freeland   02:32.2  1050 
13Daniel Pedemonte   02:32.2  1128 
14John Rempel   02:32.3  1011 
15552.74Brady DeLong   Cincinnati, OH02:32.6 393760  1053 
16Ryan Rodriguez   02:32.6  496 
17Carlos Lugo   02:33.1  476 
18Richard Finn   02:33.2  1010 
19556.38Keith Roberts   Richmond, VA02:33.4 40963  500 
20brannon cantrell   02:33.6  488 
21Charlie Mcevoy   02:34.4  475 
22559.11Jake Cooper   Temecula, CA02:34.4 403036  495 
23Josh Morris   02:35.2  482 
24560.93Reuben Krofft   Kirkland, WA02:35.4 278771  470 
25561.84Aaron Kerson   Napa, CA02:36.0 134382  295 
26Edward Bernal   02:36.7  1064 
27563.66Bryan Worth   Irvine, CA02:37.1 377809  1131 
28Richard Grove   02:37.6  464 
29Ryan McAninch   02:38.2  1106 
30Justin Wyper   02:38.3  962 
31567.30Matthew Guise   San Luis Obispo, CA02:38.7 326720  491 
32Joseph Calcagno   02:38.9  473 
33569.12Jeremy Hill   San Antonio, TX02:38.9 244253  486 Bike World Racing
34570.03Alec Sprick   Santa Rosa, CA02:40.0 196232  497 
35570.94Christopher Daigle   Broussard, LA02:40.0 49112  484 
36Nicholi Gray   02:41.2  492 
37Morgan Gillis   02:41.7  1055 
38573.67Jason Bricker   Columbia, MO02:41.8 267412  485 
39Evan Spicer   02:42.8  494 
40575.49Dylan Wright   Arcata, CA02:43.2 328902  474 
41Jackson Cox   02:43.2  1135 
42Darrin Geahry   02:43.3  1136 
43578.22Shane Zuvella   San Ramon, CA02:43.7 393746  477 
44Jonathan Zintek   02:43.8  466 
45Andy Lo   02:44.0  498 
46580.95Brian Randleman   Riverside, CA02:44.8 235744  1033 
47581.86Chase Yeremian   Burbank, CA02:45.2 402460  1013 
48Jose Carlos Go   02:45.4  478 
49Daniel Conlon   02:46.8  1047 
50Zachary Gosser   02:48.1  1126 
51Eric Sandlin   02:49.1  1063 
52Kevin Stasun   02:52.0  1105 
53Joisah Colard   02:53.5  499 
54Ben Bridger   02:57.1  483 
55589.14Marcus Atkinson   Vista, CA03:00.6 392746  1032 
56Klay Adair   03:11.7  481 
DNFRJ Wattles   DNF  469 
DNFTobias Greenberg   DNF  471 
DNFJoseph Bell   DNF  479 
DNFAdolfo Osuna   DNF  487 
DNFNick Rose   DNF  1115 

Men - CAT 2 - SENIOR - 30-34

 Place Points NameCity, StateTime USAC #BibTeam
1540.00Kevin Bell   Santa Rosasanta Rosa, CA02:25.2 345758  1132 
2Josh Podesto   02:25.6  510 
3Andrew Gillis   02:28.7  955 
4Brian Robinson   02:30.0  502 
5547.40lane gonzales   San Luis Obispo, CA02:30.2 102408  520 
6Chris Cowan   02:30.4  515 
7Shane Mellem   02:31.5  511 
8David Biehler   02:32.8  1085 
9Clancy Coakley   02:33.6  517 
10Robert Conner   02:35.9  505 
11558.50Timothy Godfrey   Oceanside, CA02:36.5 401696  521 
12Anthony Allopena   02:36.7  992 
13Devan Rosdahl   02:37.1  501 
14Andrew Peters   02:37.3  509 
15565.90Patrick Alcisto   Charlotte, NC02:37.7 380688  1148 
16Chris Demere   02:38.1  514 
17Jesse Shirley   02:38.1  507 
18571.45Grant Hutchinson   Oxford, MS02:39.5 292900  1112 
19Mike Reisenleiter   02:41.1  516 
20575.15Jeremy Boggs   Tempe, AZ02:41.3 4100  1037 
21577.00Nicholas Hammond   Concord, CA02:43.1 348676  506 
22578.85Aaron Littlefield   South Lake Tahoe, CA02:43.7 383761  1059 
23Brad Behrens   02:46.4  1168 
24Theo Mello   02:48.8  508 
25Will Watson   02:49.2  503 
26Jonathan Martinez   02:51.1  1065 
27Reed Wright   02:52.2  1113 
28589.95Cody Canales   Santa Cruz, CA02:54.3 80603  519 
DNFChris Monroe   Decatur, ILDNF 294383  512 
DNFJake Mallory   DNF  518 
DNFIan Gustafson   DNF  504 

Men - CAT 2 - SENIOR - 35-39

 Place Points NameCity, StateTime USAC #BibTeam
1Ryan Brown   02:26.4  533 
2Ryan Day   02:27.8  528 
3Mike Diorio   02:28.0  530 
4549.36Chad Gallagher   Oakland02:29.1 287934  1046 
5552.48Gabe Caldwell   707 743 134602:31.9 378476  973 
6555.60Erik Eilers   San Diego, CA02:32.1 10593  525 
7Harold Preston   02:33.7  524 
8David Langran   02:34.8  522 
9564.96Ed Dacosta   San Juan Capistrano, CA02:39.1 400524  526 
10Joe Trussell   02:39.7  1111 
11Marcos Aribas   02:41.0  534 
12574.32Joe Van Niekerk   Mountain View, CA02:42.9 225396  532 
13Shane Redhage   02:43.3  1031 
14David Neilson   02:46.1  531 
15583.68Max Whittaker   Sacramento, CA02:48.4 38089  529 
16Mike Jackson   02:50.5  527 
17589.92Jake Otsuka   Walnut Creek, CA02:58.2 252253  974 

Men - CAT 2 - MASTER - 40-49

 Place Points NameCity, StateTime USAC #BibTeam
1540.00Chad Hubbard   Birmingham, AL02:25.0 328602  988 
2Michael Shoemaker   02:25.3  537 
3544.34RYAN DeGUZMAN   Ceres, CA02:27.0 169682  1123 
4Erik Tipton   02:32.2  1008 
5John Heeber   02:32.6  990 
6550.85John Dawso   Boulder, CO02:33.4 168015  554 
7Michael Waskey   02:33.6  550 
8555.19Ray Charles   Oakland, CA02:34.7 345724  1040 
9557.36Chris Beratlis   Pleasanton, CA02:35.7 145065  1029 
10559.53PAUL WINTERMUTE   Half Moon Bay, CA02:41.0 249655  548 
11DOUG MCINTOSH   02:43.1  553 
12563.87Jerry Hazard   Bayfield, CO02:43.8 301960  547 
13566.04Clay Rogers   Spring Hill, TN02:43.9 303958  967 
14568.21Pete Cordero   San Ramon, CA02:44.7 144384  1009 
15570.38Gordon Dent   Scottsvalley, CA02:46.0 278474  552 
16James Gilmore   02:46.6  957 
17Rob Welsh   02:46.9  541 
18Bonifacio Moyrong   02:47.7  543 
19579.06Arthur Aguilar   Montebello, CA02:48.7 142476  1028 
20Douglas Cheney   02:53.1  978 
21Chris Giggy   02:53.5  549 
22585.57Dave Rogers   Sevierville, TN02:57.8 385336  544 
23587.74Ben Dorsey   San Jose, CA03:43.2 305041  540 
24Chris Jones   03:45.5  545 
DNFShane Stilwell   Sierra Vista, AZDNF 155240  535 Team Giant AZ
DNFGrady McLeod   Orangevale, CADNF 23715  536 
DNFDavid Phreaner   Santa Barbara, CADNF 195477  538 
DNFAdam Wegel   DNF  539 
DNFMike Welsh   Palatine, ILDNF 280168  542 
DNFMichael Ryan   DNF  551 
DNFBill Mol   Roseville, CADNF 189928  1056 
DNFGreg Cooper   DNF  1094 

Men - CAT 2 - MASTER - 50+

 Place Points NameCity, StateTime USAC #BibTeam
1Mike Warren   02:29.6  558 
2Ed Defty   02:31.4  555 
3John Galvin   02:33.6  556 
4Greg DT   02:35.3  562 
5Dave Smith   02:37.8  557 
6James Bradley   02:43.0  1012 
7Randal Prout   02:49.2  994 
8Walt Malzahn   02:52.7  561 
9582.66Kent Woodfield   Ogden, UT02:52.9 295970  1019 
10Ken Wright   02:57.7  559 
DNFCraig Anderson   DNF  560 

Men - JUNIOR - 1-10

 Place Points NameCity, StateTime USAC #BibTeam
1Jackson Goldstone   03:20.3  812 
2Maxwell Suffin   03:31.2  813 
3Koa Depuydt   04:02.6  815 
4Grant Russo   05:27.8  811 
5DANIEL HRABAK   05:48.0  1152 
6590.00Kieran Lawrence   Denver, CO05:58.2 363059  810 
DNFEthan Fong   DNF  814 

Men - JUNIOR - 11-12

 Place Points NameCity, StateTime USAC #BibTeam
1540.00Shawn Yakovich   Rock Springs, WY02:43.5 310645  997 
2544.55Nathan Hickey   Monrovia, CA02:49.5 319320  858 PAA/REMAX
3549.10Dante Silva   Chula Vista, CA02:57.4 288799  820 
4Malcolm Castaneda   03:04.8  821 
5558.20Matthew Sterling   San Jose, CA03:07.7 295509  971 
6Tom Woodward   03:16.8  822 
7Jack Taylor   03:17.5  824 
8571.85JAG BARTON   Thousand Oaks, CA03:22.5 299371  1159 Triple Threat Cycling Team
9Mason Fenzl   03:36.6  825 
10James Barnes   03:40.6  817 
11585.50Brennan Lawrence   Denver, CO03:58.5 363198  816 
12Jacob Ballou   04:06.5  823 
DNFGIANNI LAMPERTI   Sebastopol, CADNF 355260  818 Team Swift
DNFLUCIANNO LAMPERTI   DNF  819 

Men - JUNIOR - 13-14

 Place Points NameCity, StateTime USAC #BibTeam
1527.16Devin Kjaer   Aptos02:24.1 358825  861 
2Richard Holec   02:31.0  868 
3529.68NIkolas Nestoroff   San Marcos, CA02:34.7 316782  866 
4530.94Nicholas Gallizioli   Los Gatos02:35.7 394860  862 
5Jack Phreaner   02:37.2  831 
6Jeremy Schwartz   02:37.8  834 
7534.72Thomas Phelan   San Luis Obispo, CA02:39.4 366062  843 
8535.98Duncan Nason   Santa Rosa, CA02:40.3 358970  1075 
9537.24Ben Johansen   Welches, OR02:40.7 382103  835 
10Nicholas Kaekul   02:42.3  874 
11539.76Shane Murphy   San Clemente, CA02:42.4 401074  853 
12541.02Steven Walton   Henderson, NV02:44.0 53672  875 
13RICKY CASTRO   02:45.7  871 
14543.54Chase Willie   Longmont, CO02:46.6 298487  830 SMBA(Singletrack Mountain Bike Adventure
15Sam Morris   02:47.0  855 
16Holden Jones   02:47.8  847 
17Garret Kniss   02:47.9  859 
18Andreas Bauer   02:48.2  845 
19Jackson Mitchell   02:49.3  833 
20551.10Cole Sutton   Shingle Springs, CA02:50.7 336696  846 Trojans High School Mountain Bike Team
21Evan Mercure   02:51.3  844 
22Hunter Wehrli   02:51.6  837 
23Mike Migliore   02:51.7  863 
24556.14Chase Jamieson   La Center, WA02:53.5 295632  848 
25557.40Taylor Pine   Livermore, CA02:53.5 400352  872 
26Quinton Reece   02:54.0  832 
27Carson Coppinger   02:54.3  828 
28Elias Hutchinson   02:56.3  865 
29Ellis Kahn   02:59.2  854 
30William Mol   03:00.2  1016 
31Sarkis Halajian   03:00.4  839 
32566.22Jacob Black   Montgomery, AL03:00.7 308528  838 
33Clayton Brady   03:02.4  869 
34Parker Susmann   03:02.5  850 
35570.00MICHAEL HARVEY   Clinton, LA03:02.8 308788  870 
36571.26Aidan Donlan   San Rafael, CA03:03.4 359014  841 
37Finley Cronin   03:05.0  873 
38Aaron Arroyo   03:07.5  842 
39Isaac Zepeda   03:09.5  961 
40Hunter Walden   03:12.1  876 
41Nicholas Dye   03:14.1  856 
42Henry Van Pykeren   03:14.9  867 
43Jordan Matthew   03:15.2  877 
44Kellsey Donlan   03:15.4  840 
45582.60Trevor Ford   Tegacay, SC03:21.2 295411  852 
46Andrew Doud   03:25.6  864 
47Josh Woodward   03:28.0  851 
48Daniel Lawrence   03:35.0  827 
49Joshua Dye   03:39.1  857 
50Aidan Rhind   04:09.6  836 
51Henry Morrissey   12:08.9  826 
DNFJustin Lear   DNF  849 
DNFRyan Crivello   DNF  829 
DNFJared Meyers   Salt Lake City, UTDNF 402860  989 

Women - CAT 3

 Place Points NameCity, StateTime USAC #BibTeam
1Jennifer McCready   03:01.2  928 
2543.33Sarah Pittiglio   Davis, CA03:08.6 195004  923 
3Lisa Martinez   03:12.1  940 
4Leah Lind-White   03:14.2  925 
5Inga Beck   03:19.8  1118 
6556.65Kaydee Raths   Arcata, CA03:20.4 308570  938 
7Heidi McMullen   03:21.4  1000 
8563.31Marika Holmgren   Half Moon Bay, CA03:24.0 366164  922 
9Sarah White   03:25.9  941 
10569.97Erica Sander   Martinez, CA03:34.4 387630  937 
11Jennifer Mitchell   03:46.3  924 
12Emily Stevenson   03:49.5  1014 
13Dana Newell   03:52.4  927 
14Dawn Lawrence   03:54.8  920 
15Jessie Hughes   04:01.6  930 
16Natalie Bennett   04:55.2  1170 
DNFDonna McCready   DNF  939 
DNFMaya Brog   Novato, CADNF 382597  1044 
DNFSusan Jay   DNF  934 
DNFVeronica Torrez   DNF  933 
DNFGabriela Currid   DNF  932 
DNFMarianne Cantwell   DNF  931 
DNFCarolyne Stockwell   Lemoore, CADNF 399959  926 
DNFLala Mijares   DNF  921 
DNFLESLIE OLEY   Palo Alto, CADNF 397790  1162 

Women - CAT 2

 Place Points NameCity, StateTime USAC #BibTeam
1Keara Clark   02:42.9  1058 
2Erica Lawson   02:55.9  1169 
3Tara Luansing   02:56.1  918 
4553.65Colleen Carnathan   Palo Alto, CA03:03.4 185971  936 
5Keely Shannen   03:03.9  1139 
6562.75Kimberly Engelhart   Woodside, CA03:04.6 335948  912 
7567.30Ayshe Tuncer   Aptos, CA03:07.1 362308  916 
8Laura Batson   03:08.8  935 
9576.40Christina Lee   Daly City03:09.3 392618  913 
10Christina Jacobson   03:12.9  1071 
11585.50Marci Panneck   Mooresville, NC03:20.2 384433  915 
12590.05Rachel Carscaden   Santa Margarita, CA03:27.8 358971  917 
DNFLee-Ann Beatty   Phoenix, AZDNF 246753  914 
DNFSamantha Kingshill   DNF  887 
DNFDiana Brucculieri   DNF  963 
DNFErin Wilson   Fort Collins, CODNF 388461  919 

Women - JUNIOR - 1-14

 Place Points NameCity, StateTime USAC #BibTeam
1Zoe Aduddell   03:43.0  1081 
2McKenna Merten   Jamul Ca03:47.2 378493  886 

Women - JUNIOR - 15-18

 Place Points NameCity, StateTime USAC #BibTeam
1540.00Avery Morin   Roseville, CA02:56.7 266914  888 Bear Development Team
2Rachel Anderson   03:06.2  889 
3Makenzie Kjaer   03:15.7  890 
4Emily Gacad   03:53.8  891 

Report missing or incorrect license numbers

Volkswagen
ShimanoSierra NevadaUSACDFCUORESpyBonk Breaker
UCI USA Cycling is the official governing body for all disciplines of competitive cycling in the United States. The 501c3, membership-based organization aims both to achieve sustained success in international cycling competition and to grow competitive cycling in America while delivering an exceptional customer experience.
View Children's Online Privacy Protection Policy
US Olympic Committee